Location: Gleizolles
(44.4833°N, 6.7667°E)
Time: 13:42:36
(UTC+00:00)

A-11 Canister half - Pass Details

Date: 18 June 2024
Orbit: 1515 x 1684 km, 47.2° (Epoch: 24 July)

Event Time Altitude Azimuth Distance (km) Brightness Sun altitude
Rises 01:07:39 0° 294° (WNW) 4,823 11.6 -18.8°
Reaches altitude 10° 01:11:00 10° 288° (WNW) 3,810 11.0 -18.6°
Maximum altitude 01:19:47 42° 222° (SW) 2,101 9.2 -17.9°
Drops below altitude 10° 01:28:18 10° 156° (SSE) 3,689 10.6 -17.3°
Sets 01:31:31 0° 149° (SSE) 4,657 11.2 -17.0°
